Tracking 29059 objects as of 17-Jun-2024
HD Live streaming from Space Station
objects crossing your sky now

ICEYE-X30

Track ICEYE-X30 now!
10-day predictions


NORAD ID: 56947
Int'l Code: 2023-084R
Perigee: 501.2 km
Apogee: 514.2 km
Inclination: 97.5 °
Period: 94.6 minutes
Semi major axis: 6878 km
RCS: Unknown
Launch date: June 12, 2023
Source: United States (US)
Launch site: AIR FORCE WESTERN TEST RANGE (AFWTR)
Your satellite tracking list
Your tracking list is empty




NASA's NSSDC Master Catalog

Two Line Element Set (TLE):
1 56947U 23084R   24168.87166978  .00019210  00000-0  84800-3 0  9997
2 56947  97.5362 288.4378 0009481  30.2755 329.9027 15.21756676 56143
Source of the keplerian elements: AFSPC